User: anonymous   Login
Location: Maiden
(35.5760°N, 81.2120°W)
Time: 10:37:07
(UTC-04:00)
Language:

Explorer 11/Cluster Stage 4 - Orbit

View from above orbital plane
View from above orbital plane
View from above satellite
View from above satellite

Ground track
Ground track

The orbit data is extracted from the following two-line orbital elements,

1   107U 61013A   20217.20152250  .00000382  00000-0  29901-4 0  9996
2   107  28.7877 271.7845 0546630 175.6827 184.8715 14.08976639972514
Epoch (UTC): 04 August 2020 04:50:11
Eccentricity: 0.0546630
inclination: 28.7877°
perigee height: 467 km
apogee height: 1258 km
right ascension of ascending node: 271.7845°
argument of perigee: 175.6827°
revolutions per day: 14.08976639
mean anomaly at epoch: 184.8715°
orbit number at epoch: 97251

The dashed part of the orbit path shows where the satellite is in the earth's shadow,  

DLR